Dekhkanabad

Uzbekistan     40˚31′51″N   69˚01′58″E
temp.,
°C
wind,
m/s
gust,
m/s
humid.,
%
clouds,
%
prec.,
mm/h
press.,
hPa
HPBL,
m
28 november, sat
sat2823:00+8˚se5742100 0.0 1024104
02:00+7˚w4844100 0.0 1028172
05:00+5˚nnw2589100 2.2 1035410
08:00+3˚nnw6993100 2.2 1039590
11:00+4˚nne3585100 2.5 1041540
14:00+5˚nne237196 0.1 1041663
17:00+5˚nnw236791 0.1 1041160
20:00+2˚se118471 0.0 104223
29 november, sun
sun2923:00+1˚n118735 0.0 104123
02:00nne11790 0.0 104022
05:00−1˚nne12760 0.0 103922
08:00nne11720 0.0 103922
11:00+5˚wnw11530 0.0 1037329
14:00+7˚nnw21410 0.0 1035702
17:00+5˚n223719 0.0 103522
20:00+3˚n224268 0.0 103622
30 november, mon
mon3023:00+2˚nnw114575 0.0 103522
02:00+1˚nnw114964 0.0 103522
05:00wnw115432 0.0 103322
08:00nw125857 0.0 103221
11:00+4˚nw114673 0.0 1031251
14:00+7˚n2237100 0.0 1028528
17:00+5˚n2340100 0.0 102724
20:00+3˚n2248100 0.0 102729
1 december, tue
tue123:00+3˚nw1246100 0.0 102723
02:00+2˚ese0145100 0.0 102622
05:00+3˚w2242100 0.0 102629
08:00+3˚ene1249100 0.2 102652
11:00+6˚e2451100 0.9 1026235
14:00+9˚e474195 0.0 1025391
17:00+8˚ne225097 0.0 102656
20:00+8˚ese235989 0.0 102756
2 december, wed
wed223:00+6˚se594186 0.0 1028202
02:00+6˚se5104760 0.0 1028206
05:00+5˚se475271 0.0 1028134
08:00+5˚se2458100 0.0 1028111
11:00+10˚ene234897 0.0 1028352
14:00+12˚ene2343100 0.0 1026548
17:00+10˚ne225494 0.0 102625
20:00+9˚s1154100 0.0 102628